Tracking 18945 objects as of 19-Jan-2018
HD Live streaming from Space Station
objects crossing your sky now

FENGYUN 1C DEB

Track FENGYUN 1C DEB now!
10-day predictions


NORAD ID: 30048
Int'l Code: 1999-025NZ
Perigee: 836.7 km
Apogee: 1,117.4 km
Inclination: 98.7 °
Period: 104.5 minutes
Semi major axis: 7348 km
RCS: 0.0161 m2 (small)
Launch date: May 10, 1999
Source: People's Republic of China (PRC)
Launch site: Taiyaun Space Center, China (TSC)

Note: This is SATELLITE DEBRIS
aabbcc
Your satellite tracking list
Your tracking list is empty




NASA's NSSDC Master Catalog

Two Line Element Set (TLE):
1 30048U 99025NZ  18018.64459120 +.00000029 +00000-0 +57677-4 0  9996
2 30048 098.7069 087.5304 0191013 095.5068 069.2136 13.78299086553688
Source of the keplerian elements: AFSPC